| time (UTC) | temp F | wind direction | speed MPH | gust MPH | rain 1hr in | rain 24hr in | rain mn in | humidity % | barometer mb |
| 20260503004501 | 50 | 186 | 1.0 | 2.0 | 0.00 | 0.00 | 0.00 | 71 | 1014.9 |
| 20260503003002 | 50 | 202 | 1.0 | 1.0 | 0.00 | 0.00 | 0.00 | 69 | 1014.9 |
| 20260503001502 | 51 | 213 | 0.0 | 1.0 | 0.00 | 0.00 | 0.00 | 67 | 1015.2 |
| 20260503000003 | 51 | 212 | 1.0 | 1.0 | 0.00 | 0.00 | 0.00 | 67 | 1015.2 |
| 20260502234503 | 51 | 216 | 0.0 | 1.0 | 0.00 | 0.00 | 0.00 | 67 | 1015.2 |
| 20260502233002 | 51 | 225 | 0.0 | 0.0 | 0.00 | 0.00 | 0.00 | 70 | 1015.2 |
| 20260502231502 | 51 | 227 | 0.0 | 0.0 | 0.00 | 0.00 | 0.00 | 69 | 1015.2 |
| 20260502230002 | 51 | 225 | 0.0 | 0.0 | 0.00 | 0.00 | 0.00 | 72 | 1015.9 |
| 20260502224502 | 51 | 197 | 1.0 | 2.0 | 0.00 | 0.00 | 0.00 | 70 | 1015.9 |
| 20260502223003 | 53 | 230 | 1.0 | 2.0 | 0.00 | 0.00 | 0.00 | 64 | 1015.9 |
| 20260502221502 | 53 | 230 | 0.0 | 0.0 | 0.00 | 0.00 | 0.00 | 63 | 1015.9 |
| 20260502220001 | 55 | 202 | 1.0 | 1.0 | 0.00 | 0.00 | 0.00 | 63 | 1016.2 |
| 20260502214503 | 53 | 221 | 0.0 | 1.0 | 0.00 | 0.00 | 0.00 | 63 | 1016.2 |
| 20260502213003 | 53 | 215 | 1.0 | 1.0 | 0.00 | 0.00 | 0.00 | 64 | 1016.2 |
| 20260502211501 | 55 | 226 | 0.0 | 1.0 | 0.00 | 0.00 | 0.00 | 59 | 1016.2 |
| 20260502210003 | 55 | 224 | 0.0 | 0.0 | 0.00 | 0.00 | 0.00 | 58 | 1016.2 |
| 20260502204502 | 55 | 224 | 1.0 | 2.0 | 0.00 | 0.00 | 0.00 | 61 | 1016.2 |
| 20260502203003 | 57 | 224 | 1.0 | 1.0 | 0.00 | 0.00 | 0.00 | 60 | 1016.5 |
| 20260502201502 | 57 | 223 | 1.0 | 1.0 | 0.00 | 0.00 | 0.00 | 55 | 1016.5 |
| 20260502200004 | 57 | 234 | 0.0 | 1.0 | 0.00 | 0.00 | 0.00 | 55 | 1016.5 |
| 20260502194502 | 60 | 221 | 1.0 | 1.0 | 0.00 | 0.00 | 0.00 | 49 | 1016.5 |
| 20260502193003 | 60 | 216 | 1.0 | 1.0 | 0.00 | 0.00 | 0.00 | 49 | 1016.5 |
| 20260502191502 | 62 | 220 | 1.0 | 1.0 | 0.00 | 0.00 | 0.00 | 47 | 1016.5 |
| 20260502190004 | 62 | 220 | 1.0 | 1.0 | 0.00 | 0.00 | 0.00 | 44 | 1016.5 |
| 20260502184502 | 64 | 216 | 1.0 | 1.0 | 0.00 | 0.00 | 0.00 | 43 | 1016.5 |
| 20260502183001 | 64 | 241 | 1.0 | 1.0 | 0.00 | 0.00 | 0.00 | 41 | 1016.5 |
| 20260502181502 | 66 | 220 | 1.0 | 1.0 | 0.00 | 0.00 | 0.00 | 38 | 1016.5 |
| 20260502163002 | 75 | 185 | 5.0 | 6.0 | 0.00 | 0.00 | 0.00 | 30 | 1016.9 |
| 20260502161501 | 77 | 208 | 4.0 | 5.0 | 0.00 | 0.00 | 0.00 | 30 | 1017.2 |
| 20260502151502 | 77 | 203 | 8.0 | 10.0 | 0.00 | 0.00 | 0.00 | 30 | 1017.6 |
| 20260502123009 | 78 | 203 | 2.0 | 3.0 | 0.00 | 0.00 | 0.00 | 28 | 1019.9 |
| 20260502121502 | 78 | 210 | 5.0 | 8.0 | 0.00 | 0.00 | 0.00 | 29 | 1019.9 |
| 20260502114502 | 78 | 225 | 1.0 | 1.0 | 0.00 | 0.00 | 0.00 | 31 | 1019.9 |
| 20260502113002 | 78 | 176 | 2.0 | 3.0 | 0.00 | 0.00 | 0.00 | 30 | 1019.9 |
| 20260502111502 | 77 | 240 | 3.0 | 6.0 | 0.00 | 0.00 | 0.00 | 29 | 1020.3 |
| 20260502110002 | 77 | 236 | 1.0 | 2.0 | 0.00 | 0.00 | 0.00 | 28 | 1020.6 |
| 20260502104502 | 75 | 198 | 5.0 | 7.0 | 0.00 | 0.00 | 0.00 | 27 | 1020.6 |
| 20260502103002 | 77 | 217 | 8.0 | 9.0 | 0.00 | 0.00 | 0.00 | 27 | 1020.6 |
| 20260502101502 | 77 | 235 | 4.0 | 5.0 | 0.00 | 0.00 | 0.00 | 30 | 1020.6 |
| 20260502091502 | 75 | 223 | 1.0 | 3.0 | 0.00 | 0.00 | 0.00 | 31 | 1021.6 |
| 20260502071502 | 69 | 173 | 3.0 | 4.0 | 0.00 | 0.00 | 0.00 | 40 | 1022.3 |
| 20260502070001 | 69 | 228 | 1.0 | 1.0 | 0.00 | 0.00 | 0.00 | 41 | 1022.3 |
| 20260502064501 | 66 | 250 | 1.0 | 2.0 | 0.00 | 0.00 | 0.00 | 40 | 1022.6 |
| 20260502063002 | 66 | 220 | 3.0 | 3.0 | 0.00 | 0.00 | 0.00 | 39 | 1022.6 |
| 20260502061502 | 66 | 234 | 0.0 | 0.0 | 0.00 | 0.00 | 0.00 | 37 | 1022.6 |
| 20260502060002 | 64 | 238 | 0.0 | 0.0 | 0.00 | 0.00 | 0.00 | 38 | 1022.6 |
| 20260502054502 | 62 | 238 | 0.0 | 0.0 | 0.00 | 0.00 | 0.00 | 44 | 1022.6 |
| 20260502053002 | 57 | 234 | 0.0 | 0.0 | 0.00 | 0.00 | 0.00 | 58 | 1022.6 |
| 20260502051502 | 51 | 242 | 0.0 | 0.0 | 0.00 | 0.00 | 0.00 | 66 | 1022.6 |
| 20260502050001 | 48 | 242 | 0.0 | 0.0 | 0.00 | 0.00 | 0.00 | 80 | 1022.6 |
| 20260502044502 | 46 | 242 | 0.0 | 0.0 | 0.00 | 0.00 | 0.00 | 86 | 1022.6 |
| 20260502043002 | 44 | 241 | 0.0 | 0.0 | 0.00 | 0.00 | 0.00 | 89 | 1022.6 |
| 20260502041502 | 44 | 241 | 0.0 | 0.0 | 0.00 | 0.00 | 0.00 | 83 | 1022.3 |
| 20260502040003 | 42 | 244 | 0.0 | 0.0 | 0.00 | 0.00 | 0.00 | 89 | 1022.6 |
| 20260502034502 | 41 | 232 | 0.0 | 0.0 | 0.00 | 0.00 | 0.00 | 95 | 1022.6 |
| 20260502033002 | 39 | 231 | 0.0 | 0.0 | 0.00 | 0.00 | 0.00 | 99 | 1022.6 |
| 20260502031502 | 39 | 234 | 0.0 | 0.0 | 0.00 | 0.00 | 0.00 | 98 | 1022.6 |
| 20260502030001 | 39 | 235 | 0.0 | 0.0 | 0.00 | 0.00 | 0.00 | 97 | 1022.6 |
| 20260502024503 | 39 | 234 | 0.0 | 0.0 | 0.00 | 0.00 | 0.00 | 95 | 1022.6 |
| 20260502023002 | 39 | 230 | 0.0 | 0.0 | 0.00 | 0.00 | 0.00 | 96 | 1022.6 |
| 20260502021503 | 39 | 239 | 0.0 | 0.0 | 0.00 | 0.00 | 0.00 | 92 | 1022.6 |
| 20260502020002 | 41 | 241 | 0.0 | 0.0 | 0.00 | 0.00 | 0.00 | 94 | 1022.6 |
| 20260502014501 | 39 | 234 | 0.0 | 0.0 | 0.00 | 0.00 | 0.00 | 92 | 1022.6 |
| 20260502013003 | 41 | 227 | 0.0 | 0.0 | 0.00 | 0.00 | 0.00 | 89 | 1022.6 |
| 20260502011502 | 41 | 227 | 0.0 | 0.0 | 0.00 | 0.00 | 0.00 | 88 | 1022.6 |
| 20260502010001 | 42 | 221 | 0.0 | 0.0 | 0.00 | 0.00 | 0.00 | 86 | 1022.6 |